Starlink 33645

operational
NORAD ID: 63412 Int'l Des: 2025-065 Owner: SPXS Country: US Constellation: starlink
LEOCIRCULAR

About Starlink 33645

Description loading...

Live Position

Loading 3D Globe...

Upcoming Passes

Altitude History

Altitude vs Time

uPlot chart will show altitude changes over time

Two-Line Element Set

1 63412U 25065P 25346.99842765 .00036611 00000-0 13334-2 0 9997
2 63412 42.9975 239.8751 0001549 290.2126 69.8559 15.27578905 39542
Epoch: Dec 12, 2025 • Age: 14 hours

Current Status

Altitude 492.0 km
Velocity 7.62 km/s
Sub-Earth Point -35.36°S, 102.58°W
Launch Date Mar 31, 2025
Age 0.7 years
Type internet

Technical Details

Classification Payload
Mass 575.00 kg
Dry Mass 530.00 kg
Total Mass 575.00 kg
Length 0.30 m
Diameter 4.10 m
Span 29.00 m
Shape Box + pan
Manufacturer SPXS
Bus Type Starlink V2MO
Phase Status In Orbit
Owner/State SPXS/US

Large Constellations

Loading constellations...